Time,TemperatureF,DewpointF,PressureIn,WindDirection,WindDirectionDegrees,WindSpeedMPH,WindSpeedGustMPH,Humidity,HourlyPrecipIn,Conditions,Clouds,dailyrainin,SoftwareType,DateUTC
2013-04-18 00:02:00,74.5,66.4,30.01,East,95,3.0,15.0,76,0.00,,,0.00,meteohub,2013-04-18 04:02:00,
2013-04-18 00:07:00,74.5,66.0,30.01,East,86,3.0,11.0,75,0.00,,,0.00,meteohub,2013-04-18 04:07:00,
2013-04-18 00:12:00,74.3,65.8,30.01,East,93,6.0,11.0,75,0.00,,,0.00,meteohub,2013-04-18 04:12:00,
2013-04-18 00:17:00,74.1,65.7,30.01,SE,125,5.0,11.0,75,0.00,,,0.00,meteohub,2013-04-18 04:17:00,
2013-04-18 00:22:00,74.1,65.7,30.01,East,101,5.0,13.0,75,0.00,,,0.00,meteohub,2013-04-18 04:22:00,
2013-04-18 00:27:00,74.1,65.3,30.01,ENE,58,5.0,13.0,74,0.00,,,0.00,meteohub,2013-04-18 04:27:00,
2013-04-18 00:32:00,73.9,65.5,30.02,ENE,61,5.0,13.0,75,0.00,,,0.00,meteohub,2013-04-18 04:32:00,
2013-04-18 00:37:00,73.9,65.5,30.02,ENE,76,2.0,13.0,75,0.00,,,0.00,meteohub,2013-04-18 04:37:00,
2013-04-18 00:42:00,73.9,65.5,30.02,East,98,3.0,11.0,75,0.00,,,0.00,meteohub,2013-04-18 04:42:00,
2013-04-18 00:47:00,73.8,65.3,30.01,ENE,67,4.0,11.0,75,0.00,,,0.00,meteohub,2013-04-18 04:47:00,
2013-04-18 00:52:00,73.8,65.3,30.02,ENE,77,2.0,11.0,75,0.00,,,0.00,meteohub,2013-04-18 04:52:00,
2013-04-18 00:57:00,73.6,65.1,30.02,NE,45,2.0,11.0,75,0.00,,,0.00,meteohub,2013-04-18 04:57:00,
2013-04-18 01:02:00,73.6,65.5,30.02,NE,55,5.0,8.0,76,0.00,,,0.00,meteohub,2013-04-18 05:02:00,
2013-04-18 01:07:00,73.2,65.1,30.02,NE,34,1.0,8.0,76,0.00,,,0.00,meteohub,2013-04-18 05:07:00,
2013-04-18 01:12:00,73.0,65.5,30.02,ENE,72,2.0,8.0,77,0.00,,,0.00,meteohub,2013-04-18 05:12:00,
2013-04-18 01:17:00,72.9,65.7,30.02,ENE,71,2.0,7.0,78,0.00,,,0.00,meteohub,2013-04-18 05:17:00,
2013-04-18 01:22:00,72.9,65.7,30.02,East,89,2.0,7.0,78,0.00,,,0.00,meteohub,2013-04-18 05:22:00,
2013-04-18 01:27:00,72.7,65.5,30.01,NE,53,4.0,8.0,78,0.00,,,0.00,meteohub,2013-04-18 05:27:00,
2013-04-18 01:32:00,72.7,65.8,30.01,NE,46,2.0,8.0,79,0.00,,,0.00,meteohub,2013-04-18 05:32:00,
2013-04-18 01:37:00,72.5,65.7,30.01,East,85,1.0,8.0,79,0.00,,,0.00,meteohub,2013-04-18 05:37:00,
2013-04-18 01:42:00,72.3,65.8,30.01,ENE,67,2.0,8.0,80,0.00,,,0.00,meteohub,2013-04-18 05:42:00,
2013-04-18 01:47:00,72.3,65.8,30.01,East,81,1.0,7.0,80,0.00,,,0.00,meteohub,2013-04-18 05:47:00,
2013-04-18 01:52:00,72.1,66.0,30.01,East,83,1.0,7.0,81,0.00,,,0.00,meteohub,2013-04-18 05:52:00,
2013-04-18 01:57:00,72.1,66.0,30.01,East,101,2.0,7.0,81,0.00,,,0.00,meteohub,2013-04-18 05:57:00,
2013-04-18 02:02:00,72.0,65.8,30.01,ESE,103,1.0,5.0,81,0.00,,,0.00,meteohub,2013-04-18 06:02:00,
2013-04-18 02:07:00,72.0,66.2,30.00,East,98,1.0,5.0,82,0.00,,,0.00,meteohub,2013-04-18 06:07:00,
2013-04-18 02:12:00,71.8,66.0,30.00,East,92,2.0,6.0,82,0.00,,,0.00,meteohub,2013-04-18 06:12:00,
2013-04-18 02:17:00,71.8,66.0,30.00,ESE,103,2.0,7.0,82,0.00,,,0.00,meteohub,2013-04-18 06:17:00,
2013-04-18 02:22:00,71.8,66.0,30.00,East,96,1.0,7.0,82,0.00,,,0.00,meteohub,2013-04-18 06:22:00,
2013-04-18 02:27:00,71.8,66.0,29.99,East,90,5.0,8.0,82,0.00,,,0.00,meteohub,2013-04-18 06:27:00,
2013-04-18 02:32:00,71.6,66.2,29.99,East,99,2.0,8.0,83,0.00,,,0.00,meteohub,2013-04-18 06:32:00,
2013-04-18 02:37:00,71.8,66.4,29.99,SE,124,3.0,9.0,83,0.00,,,0.00,meteohub,2013-04-18 06:37:00,
2013-04-18 02:47:00,71.8,66.4,29.99,East,90,5.0,9.0,83,0.00,,,0.00,meteohub,2013-04-18 06:47:00,
2013-04-18 02:52:00,71.6,66.2,29.99,SE,134,6.0,8.0,83,0.00,,,0.00,meteohub,2013-04-18 06:52:00,
2013-04-18 02:57:00,71.4,66.0,29.98,ESE,102,2.0,9.0,83,0.00,,,0.00,meteohub,2013-04-18 06:57:00,
2013-04-18 03:02:00,71.4,66.4,29.98,East,82,5.0,9.0,84,0.00,,,0.00,meteohub,2013-04-18 07:02:00,
2013-04-18 03:07:00,71.4,66.4,29.98,East,92,8.0,9.0,84,0.00,,,0.00,meteohub,2013-04-18 07:07:00,
2013-04-18 03:12:00,71.4,66.4,29.98,ESE,121,2.0,9.0,84,0.00,,,0.00,meteohub,2013-04-18 07:12:00,
2013-04-18 03:17:00,71.2,66.2,29.98,ESE,123,7.0,9.0,84,0.00,,,0.00,meteohub,2013-04-18 07:17:00,
2013-04-18 03:22:00,71.2,66.2,29.98,East,93,7.0,9.0,84,0.00,,,0.00,meteohub,2013-04-18 07:22:00,
2013-04-18 03:27:00,71.2,66.2,29.98,East,91,2.0,8.0,84,0.00,,,0.00,meteohub,2013-04-18 07:27:00,
2013-04-18 03:32:00,71.1,66.4,29.98,East,96,2.0,7.0,85,0.00,,,0.00,meteohub,2013-04-18 07:32:00,
2013-04-18 03:37:00,71.1,66.4,29.98,East,90,7.0,7.0,85,0.00,,,0.00,meteohub,2013-04-18 07:37:00,
2013-04-18 03:42:00,70.9,66.2,29.98,ESE,113,3.0,7.0,85,0.00,,,0.00,meteohub,2013-04-18 07:42:00,
2013-04-18 03:47:00,70.9,66.2,29.98,East,92,3.0,8.0,85,0.00,,,0.00,meteohub,2013-04-18 07:47:00,
2013-04-18 03:52:00,70.9,66.6,29.98,East,89,2.0,8.0,86,0.00,,,0.00,meteohub,2013-04-18 07:52:00,
2013-04-18 03:57:00,70.7,66.4,29.97,East,100,0.0,7.0,86,0.00,,,0.00,meteohub,2013-04-18 07:57:00,
2013-04-18 04:02:00,70.5,66.2,29.98,SE,124,5.0,7.0,86,0.00,,,0.00,meteohub,2013-04-18 08:02:00,
2013-04-18 04:07:00,70.5,66.2,29.98,East,92,2.0,9.0,86,0.00,,,0.00,meteohub,2013-04-18 08:07:00,
2013-04-18 04:17:00,70.5,66.2,29.97,East,88,5.0,7.0,86,0.00,,,0.00,meteohub,2013-04-18 08:17:00,
2013-04-18 04:22:00,70.3,66.2,29.97,East,93,3.0,7.0,87,0.00,,,0.00,meteohub,2013-04-18 08:22:00,
2013-04-18 04:27:00,70.3,66.2,29.97,East,93,3.0,7.0,87,0.00,,,0.00,meteohub,2013-04-18 08:27:00,
2013-04-18 04:32:00,70.3,66.2,29.97,SE,127,5.0,8.0,87,0.00,,,0.00,meteohub,2013-04-18 08:32:00,
2013-04-18 04:37:00,70.3,66.2,29.97,ESE,117,3.0,8.0,87,0.00,,,0.00,meteohub,2013-04-18 08:37:00,
2013-04-18 04:42:00,70.2,66.0,29.97,East,92,1.0,8.0,87,0.00,,,0.00,meteohub,2013-04-18 08:42:00,
2013-04-18 04:47:00,70.2,66.0,29.97,ESE,109,1.0,6.0,87,0.00,,,0.00,meteohub,2013-04-18 08:47:00,
2013-04-18 04:52:00,70.0,66.2,29.97,East,95,2.0,6.0,88,0.00,,,0.00,meteohub,2013-04-18 08:52:00,
2013-04-18 04:57:00,70.0,66.2,29.97,SE,132,1.0,7.0,88,0.00,,,0.00,meteohub,2013-04-18 08:57:00,
2013-04-18 05:02:00,70.0,66.2,29.97,East,100,7.0,7.0,88,0.00,,,0.00,meteohub,2013-04-18 09:02:00,
2013-04-18 05:07:00,70.0,66.6,29.97,SE,135,4.0,8.0,89,0.00,,,0.00,meteohub,2013-04-18 09:07:00,
2013-04-18 05:12:00,70.0,66.6,29.97,East,86,5.0,8.0,89,0.00,,,0.00,meteohub,2013-04-18 09:12:00,
2013-04-18 05:17:00,70.0,66.6,29.97,ESE,105,3.0,8.0,89,0.00,,,0.00,meteohub,2013-04-18 09:17:00,
2013-04-18 05:22:00,70.0,66.6,29.97,East,96,3.0,9.0,89,0.00,,,0.00,meteohub,2013-04-18 09:22:00,
2013-04-18 05:27:00,70.2,66.7,29.97,ESE,107,3.0,9.0,89,0.00,,,0.00,meteohub,2013-04-18 09:27:00,
2013-04-18 05:32:00,70.2,67.1,29.97,ESE,107,3.0,8.0,90,0.00,,,0.00,meteohub,2013-04-18 09:32:00,
2013-04-18 05:37:00,70.2,67.1,29.97,East,96,1.0,10.0,90,0.00,,,0.00,meteohub,2013-04-18 09:37:00,
2013-04-18 05:42:00,70.2,67.1,29.97,ESE,107,5.0,10.0,90,0.00,,,0.00,meteohub,2013-04-18 09:42:00,
2013-04-18 05:47:00,70.0,66.9,29.97,East,90,2.0,10.0,90,0.00,,,0.00,meteohub,2013-04-18 09:47:00,
2013-04-18 05:52:00,70.0,66.9,29.97,ESE,111,5.0,8.0,90,0.00,,,0.00,meteohub,2013-04-18 09:52:00,
2013-04-18 05:57:00,70.0,66.9,29.97,SE,127,2.0,8.0,90,0.00,,,0.00,meteohub,2013-04-18 09:57:00,
2013-04-18 06:02:00,69.8,66.7,29.97,East,90,3.0,9.0,90,0.00,,,0.00,meteohub,2013-04-18 10:02:00,
2013-04-18 06:07:00,69.8,66.7,29.98,SE,135,4.0,9.0,90,0.00,,,0.00,meteohub,2013-04-18 10:07:00,
2013-04-18 06:12:00,69.6,66.6,29.98,ESE,107,3.0,9.0,90,0.00,,,0.00,meteohub,2013-04-18 10:12:00,
2013-04-18 06:17:00,69.6,66.6,29.98,ESE,120,2.0,9.0,90,0.00,,,0.00,meteohub,2013-04-18 10:17:00,
2013-04-18 06:22:00,69.6,66.9,29.98,East,100,2.0,9.0,91,0.00,,,0.00,meteohub,2013-04-18 10:22:00,
2013-04-18 06:27:00,69.6,66.9,29.98,SE,126,3.0,9.0,91,0.00,,,0.00,meteohub,2013-04-18 10:27:00,
2013-04-18 06:32:00,69.4,66.7,29.98,East,83,3.0,9.0,91,0.00,,,0.00,meteohub,2013-04-18 10:32:00,
2013-04-18 06:37:00,69.4,66.7,29.98,East,88,5.0,8.0,91,0.00,,,0.00,meteohub,2013-04-18 10:37:00,
2013-04-18 06:42:00,69.3,66.6,29.99,East,84,3.0,7.0,91,0.00,,,0.00,meteohub,2013-04-18 10:42:00,
2013-04-18 06:47:00,69.3,66.6,29.98,East,94,3.0,7.0,91,0.00,,,0.00,meteohub,2013-04-18 10:47:00,
2013-04-18 06:52:00,69.3,66.6,29.98,ENE,74,2.0,7.0,91,0.00,,,0.00,meteohub,2013-04-18 10:52:00,
2013-04-18 06:57:00,69.1,66.4,29.99,East,87,0.0,7.0,91,0.00,,,0.00,meteohub,2013-04-18 10:57:00,
2013-04-18 07:02:00,69.1,66.4,29.99,ENE,78,0.0,7.0,91,0.00,,,0.00,meteohub,2013-04-18 11:02:00,
2013-04-18 07:07:00,68.7,66.0,29.99,ENE,75,1.0,7.0,91,0.00,,,0.00,meteohub,2013-04-18 11:07:00,
2013-04-18 07:12:00,68.5,66.2,29.99,ENE,59,3.0,5.0,92,0.00,,,0.00,meteohub,2013-04-18 11:12:00,
2013-04-18 07:17:00,68.4,66.0,29.99,ENE,63,2.0,8.0,92,0.00,,,0.00,meteohub,2013-04-18 11:17:00,
2013-04-18 07:22:00,68.2,65.8,29.99,East,81,1.0,8.0,92,0.00,,,0.00,meteohub,2013-04-18 11:22:00,
2013-04-18 07:32:00,68.4,66.0,30.00,East,80,2.0,8.0,92,0.00,,,0.00,meteohub,2013-04-18 11:32:00,
2013-04-18 07:37:00,68.4,66.0,30.00,East,79,5.0,8.0,92,0.00,,,0.00,meteohub,2013-04-18 11:37:00,
2013-04-18 07:42:00,68.5,66.2,30.00,East,86,1.0,8.0,92,0.00,,,0.00,meteohub,2013-04-18 11:42:00,
2013-04-18 07:47:00,68.5,66.2,30.00,ENE,76,1.0,6.0,92,0.00,,,0.00,meteohub,2013-04-18 11:47:00,
2013-04-18 07:52:00,68.5,66.2,30.00,ENE,76,3.0,5.0,92,0.00,,,0.00,meteohub,2013-04-18 11:52:00,
2013-04-18 07:57:00,68.7,66.4,30.00,ENE,72,2.0,6.0,92,0.00,,,0.00,meteohub,2013-04-18 11:57:00,
2013-04-18 08:02:00,69.1,66.7,30.00,East,81,2.0,6.0,92,0.00,,,0.00,meteohub,2013-04-18 12:02:00,
2013-04-18 08:07:00,69.3,66.9,30.00,ENE,75,0.0,7.0,92,0.00,,,0.00,meteohub,2013-04-18 12:07:00,
2013-04-18 08:12:00,69.6,66.9,30.00,East,94,7.0,7.0,91,0.00,,,0.00,meteohub,2013-04-18 12:12:00,
2013-04-18 08:17:00,69.8,67.1,30.01,East,98,1.0,8.0,91,0.00,,,0.00,meteohub,2013-04-18 12:17:00,
2013-04-18 08:22:00,70.2,67.5,30.01,ESE,103,7.0,8.0,91,0.00,,,0.00,meteohub,2013-04-18 12:22:00,
2013-04-18 08:27:00,70.3,67.3,30.01,SE,134,2.0,10.0,90,0.00,,,0.00,meteohub,2013-04-18 12:27:00,
2013-04-18 08:32:00,70.9,67.8,30.01,ENE,76,4.0,10.0,90,0.00,,,0.00,meteohub,2013-04-18 12:32:00,
2013-04-18 08:37:00,71.1,67.6,30.00,East,96,2.0,10.0,89,0.00,,,0.00,meteohub,2013-04-18 12:37:00,
2013-04-18 08:42:00,71.4,67.6,30.01,ESE,103,8.0,10.0,88,0.00,,,0.00,meteohub,2013-04-18 12:42:00,
2013-04-18 08:52:00,72.0,67.8,30.00,East,94,3.0,11.0,87,0.00,,,0.00,meteohub,2013-04-18 12:52:00,
2013-04-18 09:02:00,72.5,68.0,30.00,East,98,2.0,10.0,86,0.00,,,0.00,meteohub,2013-04-18 13:02:00,
2013-04-18 09:07:00,72.9,68.0,30.00,East,82,5.0,10.0,85,0.00,,,0.00,meteohub,2013-04-18 13:07:00,
2013-04-18 09:12:00,73.2,68.2,30.00,East,90,7.0,10.0,84,0.00,,,0.00,meteohub,2013-04-18 13:12:00,
2013-04-18 09:17:00,73.4,68.2,30.00,ESE,115,0.0,10.0,84,0.00,,,0.00,meteohub,2013-04-18 13:17:00,
2013-04-18 09:22:00,73.8,68.4,30.00,SE,138,4.0,11.0,83,0.00,,,0.00,meteohub,2013-04-18 13:22:00,
2013-04-18 09:27:00,74.1,68.2,30.00,SE,128,3.0,11.0,82,0.00,,,0.00,meteohub,2013-04-18 13:27:00,
2013-04-18 09:32:00,74.7,68.7,30.00,ESE,117,7.0,11.0,82,0.00,,,0.00,meteohub,2013-04-18 13:32:00,
2013-04-18 09:37:00,74.8,68.5,30.00,ESE,109,7.0,10.0,81,0.00,,,0.00,meteohub,2013-04-18 13:37:00,
2013-04-18 09:47:00,75.7,69.1,30.00,SSE,165,3.0,13.0,80,0.00,,,0.00,meteohub,2013-04-18 13:47:00,
2013-04-18 09:52:00,76.1,68.7,30.00,SE,134,8.0,13.0,78,0.00,,,0.00,meteohub,2013-04-18 13:52:00,
2013-04-18 09:57:00,76.3,68.9,30.00,SSE,163,3.0,14.0,78,0.00,,,0.00,meteohub,2013-04-18 13:57:00,
2013-04-18 10:02:00,76.6,68.5,30.00,East,90,5.0,14.0,76,0.00,,,0.00,meteohub,2013-04-18 14:02:00,
2013-04-18 10:07:00,76.6,68.9,30.00,SSW,200,5.0,14.0,77,0.00,,,0.00,meteohub,2013-04-18 14:07:00,
2013-04-18 10:12:00,76.6,68.5,30.00,SE,143,12.0,15.0,76,0.00,,,0.00,meteohub,2013-04-18 14:12:00,
2013-04-18 10:22:00,76.8,69.1,30.01,SE,144,7.0,15.0,77,0.00,,,0.00,meteohub,2013-04-18 14:22:00,
2013-04-18 10:27:00,76.6,68.9,30.01,ESE,119,9.0,16.0,77,0.00,,,0.00,meteohub,2013-04-18 14:27:00,
2013-04-18 10:32:00,77.2,69.1,30.00,ESE,104,9.0,16.0,76,0.00,,,0.00,meteohub,2013-04-18 14:32:00,
2013-04-18 10:42:00,77.5,68.9,30.00,ESE,117,8.0,16.0,75,0.00,,,0.00,meteohub,2013-04-18 14:42:00,
2013-04-18 10:52:00,77.5,68.9,30.01,NE,37,1.0,16.0,75,0.00,,,0.00,meteohub,2013-04-18 14:52:00,
2013-04-18 10:57:00,77.7,69.6,30.00,SE,143,7.0,16.0,76,0.00,,,0.00,meteohub,2013-04-18 14:57:00,
2013-04-18 11:02:00,78.1,70.0,30.01,East,100,6.0,14.0,76,0.00,,,0.00,meteohub,2013-04-18 15:02:00,
2013-04-18 11:07:00,77.7,69.6,30.01,ESE,121,11.0,14.0,76,0.00,,,0.00,meteohub,2013-04-18 15:07:00,
2013-04-18 11:12:00,77.7,69.6,30.00,SE,133,13.0,14.0,76,0.00,,,0.00,meteohub,2013-04-18 15:12:00,
2013-04-18 11:17:00,78.1,70.0,30.00,SE,134,9.0,14.0,76,0.00,,,0.00,meteohub,2013-04-18 15:17:00,
2013-04-18 11:22:00,78.3,70.0,30.00,SE,142,5.0,14.0,76,0.00,,,0.00,meteohub,2013-04-18 15:22:00,
2013-04-18 11:27:00,78.4,69.8,30.00,East,96,14.0,14.0,75,0.00,,,0.00,meteohub,2013-04-18 15:27:00,
2013-04-18 11:32:00,78.4,70.2,30.00,ESE,107,7.0,14.0,76,0.00,,,0.00,meteohub,2013-04-18 15:32:00,
2013-04-18 11:37:00,78.8,70.2,30.00,ESE,104,5.0,14.0,75,0.00,,,0.00,meteohub,2013-04-18 15:37:00,
2013-04-18 11:42:00,79.0,70.0,30.00,ESE,112,8.0,14.0,74,0.00,,,0.00,meteohub,2013-04-18 15:42:00,
2013-04-18 11:47:00,79.2,70.5,30.00,SSE,157,3.0,13.0,75,0.00,,,0.00,meteohub,2013-04-18 15:47:00,
2013-04-18 11:52:00,79.3,70.7,30.01,South,186,7.0,13.0,75,0.00,,,0.00,meteohub,2013-04-18 15:52:00,
2013-04-18 11:57:00,79.9,70.5,30.00,ESE,113,5.0,12.0,73,0.00,,,0.00,meteohub,2013-04-18 15:57:00,
2013-04-18 12:02:00,80.2,70.3,30.01,East,91,10.0,12.0,72,0.00,,,0.00,meteohub,2013-04-18 16:02:00,
2013-04-18 12:07:00,80.2,70.0,30.00,ESE,107,4.0,12.0,71,0.00,,,0.00,meteohub,2013-04-18 16:07:00,
2013-04-18 12:12:00,81.0,70.7,30.00,ESE,113,2.0,10.0,71,0.00,,,0.00,meteohub,2013-04-18 16:12:00,
2013-04-18 12:17:00,81.1,70.3,30.00,South,173,5.0,10.0,70,0.00,,,0.00,meteohub,2013-04-18 16:17:00,
2013-04-18 12:22:00,81.7,70.9,30.01,SSE,154,2.0,11.0,70,0.00,,,0.00,meteohub,2013-04-18 16:22:00,
2013-04-18 12:27:00,81.5,70.0,30.01,ESE,123,9.0,11.0,68,0.00,,,0.00,meteohub,2013-04-18 16:27:00,
2013-04-18 12:32:00,81.3,70.2,30.00,South,186,3.0,11.0,69,0.00,,,0.00,meteohub,2013-04-18 16:32:00,
2013-04-18 12:37:00,81.7,70.2,30.00,SE,146,4.0,11.0,68,0.00,,,0.00,meteohub,2013-04-18 16:37:00,
2013-04-18 12:47:00,81.9,70.3,29.99,South,188,5.0,11.0,68,0.00,,,0.00,meteohub,2013-04-18 16:47:00,
2013-04-18 12:52:00,81.7,69.6,29.99,SSE,166,3.0,11.0,67,0.00,,,0.00,meteohub,2013-04-18 16:52:00,
2013-04-18 12:57:00,81.7,70.2,29.99,SSE,156,3.0,11.0,68,0.00,,,0.00,meteohub,2013-04-18 16:57:00,
2013-04-18 13:02:00,81.7,69.6,29.99,SSE,155,10.0,11.0,67,0.00,,,0.00,meteohub,2013-04-18 17:02:00,
2013-04-18 13:07:00,82.2,70.2,29.99,East,89,6.0,12.0,67,0.00,,,0.00,meteohub,2013-04-18 17:07:00,
2013-04-18 13:12:00,82.6,69.1,29.99,ESE,117,3.0,12.0,64,0.00,,,0.00,meteohub,2013-04-18 17:12:00,
2013-04-18 13:17:00,82.6,68.7,29.99,SE,138,2.0,12.0,63,0.00,,,0.00,meteohub,2013-04-18 17:17:00,
2013-04-18 13:22:00,82.6,68.7,29.99,SSE,150,3.0,12.0,63,0.00,,,0.00,meteohub,2013-04-18 17:22:00,
2013-04-18 13:27:00,82.9,69.1,29.99,SSE,161,8.0,12.0,63,0.00,,,0.00,meteohub,2013-04-18 17:27:00,
2013-04-18 13:32:00,83.5,69.1,29.98,South,190,2.0,11.0,62,0.00,,,0.00,meteohub,2013-04-18 17:32:00,
2013-04-18 13:37:00,83.8,68.0,29.99,South,182,2.0,11.0,59,0.00,,,0.00,meteohub,2013-04-18 17:37:00,
2013-04-18 13:47:00,84.0,68.7,29.98,East,96,3.0,11.0,60,0.00,,,0.00,meteohub,2013-04-18 17:47:00,
2013-04-18 13:52:00,84.4,68.0,29.98,SE,141,7.0,11.0,58,0.00,,,0.00,meteohub,2013-04-18 17:52:00,
2013-04-18 13:57:00,84.7,68.4,29.98,SE,133,8.0,10.0,58,0.00,,,0.00,meteohub,2013-04-18 17:57:00,
2013-04-18 14:02:00,84.0,68.2,29.98,SE,127,2.0,10.0,59,0.00,,,0.00,meteohub,2013-04-18 18:02:00,
2013-04-18 14:07:00,83.8,68.0,29.97,East,101,0.0,10.0,59,0.00,,,0.00,meteohub,2013-04-18 18:07:00,
2013-04-18 14:12:00,84.4,68.0,29.98,SSE,158,8.0,10.0,58,0.00,,,0.00,meteohub,2013-04-18 18:12:00,
2013-04-18 14:17:00,84.7,68.9,29.97,SE,125,4.0,11.0,59,0.00,,,0.00,meteohub,2013-04-18 18:17:00,
2013-04-18 14:22:00,85.6,68.7,29.97,SE,126,5.0,11.0,57,0.00,,,0.00,meteohub,2013-04-18 18:22:00,
2013-04-18 14:32:00,85.8,67.8,29.97,SE,142,4.0,9.0,55,0.00,,,0.00,meteohub,2013-04-18 18:32:00,
2013-04-18 14:37:00,85.3,67.3,29.97,ESE,109,3.0,10.0,55,0.00,,,0.00,meteohub,2013-04-18 18:37:00,
2013-04-18 14:42:00,84.9,67.5,29.97,ESE,120,4.0,10.0,56,0.00,,,0.00,meteohub,2013-04-18 18:42:00,
2013-04-18 14:47:00,85.5,68.0,29.96,ESE,114,8.0,10.0,56,0.00,,,0.00,meteohub,2013-04-18 18:47:00,
2013-04-18 14:57:00,85.5,67.5,29.96,SSE,148,8.0,12.0,55,0.00,,,0.00,meteohub,2013-04-18 18:57:00,
2013-04-18 15:02:00,85.1,67.1,29.95,SE,140,2.0,12.0,55,0.00,,,0.00,meteohub,2013-04-18 19:02:00,
2013-04-18 15:07:00,85.3,67.8,29.95,SE,126,1.0,12.0,56,0.00,,,0.00,meteohub,2013-04-18 19:07:00,
2013-04-18 15:12:00,85.6,67.6,29.95,East,99,3.0,12.0,55,0.00,,,0.00,meteohub,2013-04-18 19:12:00,
2013-04-18 15:17:00,85.8,67.8,29.95,SE,138,5.0,9.0,55,0.00,,,0.00,meteohub,2013-04-18 19:17:00,
2013-04-18 15:22:00,85.5,67.5,29.94,SE,135,0.0,9.0,55,0.00,,,0.00,meteohub,2013-04-18 19:22:00,
2013-04-18 15:27:00,86.2,67.1,29.94,East,94,11.0,11.0,53,0.00,,,0.00,meteohub,2013-04-18 19:27:00,
2013-04-18 15:32:00,86.5,67.5,29.94,ESE,123,5.0,12.0,53,0.00,,,0.00,meteohub,2013-04-18 19:32:00,
2013-04-18 15:37:00,86.5,68.0,29.94,East,90,3.0,12.0,54,0.00,,,0.00,meteohub,2013-04-18 19:37:00,
2013-04-18 15:42:00,86.7,67.5,29.94,East,89,7.0,12.0,53,0.00,,,0.00,meteohub,2013-04-18 19:42:00,
2013-04-18 15:47:00,86.5,66.7,29.94,ESE,111,8.0,11.0,52,0.00,,,0.00,meteohub,2013-04-18 19:47:00,
2013-04-18 15:52:00,86.7,68.0,29.94,SE,137,6.0,11.0,54,0.00,,,0.00,meteohub,2013-04-18 19:52:00,
2013-04-18 15:57:00,86.9,67.6,29.93,South,185,7.0,11.0,53,0.00,,,0.00,meteohub,2013-04-18 19:57:00,
2013-04-18 16:02:00,87.1,67.8,29.93,ESE,113,5.0,11.0,53,0.00,,,0.00,meteohub,2013-04-18 20:02:00,
2013-04-18 16:07:00,87.3,67.5,29.93,South,171,8.0,10.0,52,0.00,,,0.00,meteohub,2013-04-18 20:07:00,
2013-04-18 16:12:00,86.7,68.0,29.93,ENE,71,4.0,12.0,54,0.00,,,0.00,meteohub,2013-04-18 20:12:00,
2013-04-18 16:22:00,86.5,68.0,29.93,ESE,119,0.0,13.0,54,0.00,,,0.00,meteohub,2013-04-18 20:22:00,
2013-04-18 16:27:00,87.3,68.5,29.93,SSE,166,2.0,13.0,54,0.00,,,0.00,meteohub,2013-04-18 20:27:00,
2013-04-18 16:32:00,87.3,68.0,29.93,South,176,2.0,13.0,53,0.00,,,0.00,meteohub,2013-04-18 20:32:00,
2013-04-18 16:37:00,86.7,67.5,29.93,SE,133,6.0,11.0,53,0.00,,,0.00,meteohub,2013-04-18 20:37:00,
2013-04-18 16:42:00,86.4,67.8,29.93,SSE,163,7.0,11.0,54,0.00,,,0.00,meteohub,2013-04-18 20:42:00,
2013-04-18 16:47:00,86.0,68.0,29.93,South,173,4.0,11.0,55,0.00,,,0.00,meteohub,2013-04-18 20:47:00,
2013-04-18 16:52:00,86.2,67.6,29.92,South,185,2.0,10.0,54,0.00,,,0.00,meteohub,2013-04-18 20:52:00,
2013-04-18 16:57:00,86.5,68.0,29.93,South,171,3.0,10.0,54,0.00,,,0.00,meteohub,2013-04-18 20:57:00,
2013-04-18 17:02:00,86.2,69.6,29.93,West,265,6.0,10.0,58,0.00,,,0.00,meteohub,2013-04-18 21:02:00,
2013-04-18 17:07:00,84.9,70.0,29.92,WNW,295,6.0,11.0,61,0.00,,,0.00,meteohub,2013-04-18 21:07:00,
2013-04-18 17:12:00,84.6,70.2,29.92,West,273,3.0,11.0,62,0.00,,,0.00,meteohub,2013-04-18 21:12:00,
2013-04-18 17:17:00,85.1,71.1,29.92,SSW,192,0.0,10.0,63,0.00,,,0.00,meteohub,2013-04-18 21:17:00,
2013-04-18 17:22:00,84.6,71.1,29.92,West,263,6.0,11.0,64,0.00,,,0.00,meteohub,2013-04-18 21:22:00,
2013-04-18 17:27:00,84.2,71.2,29.92,WSW,248,6.0,11.0,65,0.00,,,0.00,meteohub,2013-04-18 21:27:00,
2013-04-18 17:32:00,84.4,71.2,29.92,SW,221,2.0,11.0,65,0.00,,,0.00,meteohub,2013-04-18 21:32:00,
2013-04-18 17:37:00,84.7,71.2,29.92,SSW,207,10.0,10.0,64,0.00,,,0.00,meteohub,2013-04-18 21:37:00,
2013-04-18 17:42:00,84.9,71.4,29.92,WSW,244,7.0,14.0,64,0.00,,,0.00,meteohub,2013-04-18 21:42:00,
2013-04-18 17:47:00,84.9,70.9,29.92,SW,219,7.0,14.0,63,0.00,,,0.00,meteohub,2013-04-18 21:47:00,
2013-04-18 17:52:00,84.7,71.2,29.91,WSW,240,9.0,14.0,64,0.00,,,0.00,meteohub,2013-04-18 21:52:00,
2013-04-18 17:57:00,84.6,71.1,29.91,WNW,286,1.0,12.0,64,0.00,,,0.00,meteohub,2013-04-18 21:57:00,
2013-04-18 18:02:00,84.7,70.7,29.92,WSW,237,8.0,12.0,63,0.00,,,0.00,meteohub,2013-04-18 22:02:00,
2013-04-18 18:07:00,84.6,70.5,29.91,WSW,238,8.0,12.0,63,0.00,,,0.00,meteohub,2013-04-18 22:07:00,
2013-04-18 18:12:00,84.4,70.9,29.91,SW,224,9.0,12.0,64,0.00,,,0.00,meteohub,2013-04-18 22:12:00,
2013-04-18 18:17:00,84.6,70.2,29.92,South,181,4.0,14.0,62,0.00,,,0.00,meteohub,2013-04-18 22:17:00,
2013-04-18 18:22:00,84.7,70.3,29.92,WSW,244,3.0,14.0,62,0.00,,,0.00,meteohub,2013-04-18 22:22:00,
2013-04-18 18:27:00,84.6,70.2,29.91,SW,232,7.0,13.0,62,0.00,,,0.00,meteohub,2013-04-18 22:27:00,
2013-04-18 18:32:00,84.6,69.6,29.91,SW,219,10.0,13.0,61,0.00,,,0.00,meteohub,2013-04-18 22:32:00,
2013-04-18 18:37:00,84.0,69.1,29.91,SW,225,5.0,13.0,61,0.00,,,0.00,meteohub,2013-04-18 22:37:00,
2013-04-18 18:42:00,84.4,69.4,29.92,SSW,196,9.0,13.0,61,0.00,,,0.00,meteohub,2013-04-18 22:42:00,
2013-04-18 18:47:00,84.2,69.3,29.92,SW,226,5.0,13.0,61,0.00,,,0.00,meteohub,2013-04-18 22:47:00,
2013-04-18 18:52:00,83.8,68.9,29.91,SW,218,8.0,12.0,61,0.00,,,0.00,meteohub,2013-04-18 22:52:00,
2013-04-18 18:57:00,83.7,68.7,29.91,SW,215,7.0,12.0,61,0.00,,,0.00,meteohub,2013-04-18 22:57:00,
2013-04-18 19:02:00,83.5,68.5,29.92,South,190,7.0,11.0,61,0.00,,,0.00,meteohub,2013-04-18 23:02:00,
2013-04-18 19:07:00,82.9,68.5,29.91,SW,215,8.0,11.0,62,0.00,,,0.00,meteohub,2013-04-18 23:07:00,
2013-04-18 19:12:00,82.9,69.1,29.91,South,190,3.0,11.0,63,0.00,,,0.00,meteohub,2013-04-18 23:12:00,
2013-04-18 19:17:00,82.9,68.5,29.91,SW,222,9.0,11.0,62,0.00,,,0.00,meteohub,2013-04-18 23:17:00,
2013-04-18 19:22:00,82.6,68.2,29.92,SSW,211,5.0,11.0,62,0.00,,,0.00,meteohub,2013-04-18 23:22:00,
2013-04-18 19:27:00,82.4,68.0,29.91,SSW,194,10.0,10.0,62,0.00,,,0.00,meteohub,2013-04-18 23:27:00,
2013-04-18 19:32:00,82.2,68.4,29.92,SSW,195,6.0,10.0,63,0.00,,,0.00,meteohub,2013-04-18 23:32:00,
2013-04-18 19:37:00,82.2,68.4,29.92,SSW,210,7.0,10.0,63,0.00,,,0.00,meteohub,2013-04-18 23:37:00,
2013-04-18 19:42:00,82.0,68.2,29.92,SSW,212,2.0,10.0,63,0.00,,,0.00,meteohub,2013-04-18 23:42:00,
2013-04-18 19:47:00,81.9,68.5,29.92,SW,234,4.0,10.0,64,0.00,,,0.00,meteohub,2013-04-18 23:47:00,
2013-04-18 19:52:00,81.1,68.2,29.92,SW,218,4.0,10.0,65,0.00,,,0.00,meteohub,2013-04-18 23:52:00,
2013-04-18 19:57:00,81.0,68.5,29.93,SW,221,5.0,7.0,66,0.00,,,0.00,meteohub,2013-04-18 23:57:00,
2013-04-18 20:02:00,80.8,68.4,29.92,SSW,193,6.0,8.0,66,0.00,,,0.00,meteohub,2013-04-19 00:02:00,
2013-04-18 20:07:00,80.8,68.7,29.93,SSW,197,7.0,9.0,67,0.00,,,0.00,meteohub,2013-04-19 00:07:00,
2013-04-18 20:12:00,80.4,68.9,29.93,SW,216,4.0,9.0,68,0.00,,,0.00,meteohub,2013-04-19 00:12:00,
2013-04-18 20:17:00,80.2,68.7,29.93,SW,216,3.0,9.0,68,0.00,,,0.00,meteohub,2013-04-19 00:17:00,
2013-04-18 20:22:00,79.9,68.7,29.93,SSW,212,5.0,7.0,69,0.00,,,0.00,meteohub,2013-04-19 00:22:00,
2013-04-18 20:27:00,79.9,69.3,29.94,SSW,209,2.0,9.0,70,0.00,,,0.00,meteohub,2013-04-19 00:27:00,
2013-04-18 20:32:00,79.9,69.3,29.94,SSW,208,3.0,9.0,70,0.00,,,0.00,meteohub,2013-04-19 00:32:00,
2013-04-18 20:37:00,79.7,69.4,29.94,SSW,207,0.0,9.0,71,0.00,,,0.00,meteohub,2013-04-19 00:37:00,
2013-04-18 20:42:00,79.5,69.3,29.94,SW,229,5.0,10.0,71,0.00,,,0.00,meteohub,2013-04-19 00:42:00,
2013-04-18 20:47:00,79.3,69.4,29.94,SSW,202,3.0,10.0,72,0.00,,,0.00,meteohub,2013-04-19 00:47:00,
2013-04-18 20:52:00,79.3,70.0,29.94,SSW,202,4.0,8.0,73,0.00,,,0.00,meteohub,2013-04-19 00:52:00,
2013-04-18 20:57:00,79.3,70.0,29.94,SW,222,4.0,8.0,73,0.00,,,0.00,meteohub,2013-04-19 00:57:00,
2013-04-18 21:02:00,79.2,70.2,29.94,SW,225,4.0,8.0,74,0.00,,,0.00,meteohub,2013-04-19 01:02:00,
2013-04-18 21:07:00,79.0,70.0,29.94,SW,217,4.0,8.0,74,0.00,,,0.00,meteohub,2013-04-19 01:07:00,
2013-04-18 21:12:00,79.2,70.2,29.95,SSW,203,5.0,8.0,74,0.00,,,0.00,meteohub,2013-04-19 01:12:00,
2013-04-18 21:17:00,79.0,70.0,29.95,SSW,206,5.0,6.0,74,0.00,,,0.00,meteohub,2013-04-19 01:17:00,
2013-04-18 21:22:00,78.6,70.0,29.95,SSW,209,3.0,6.0,75,0.00,,,0.00,meteohub,2013-04-19 01:22:00,
2013-04-18 21:27:00,78.6,70.3,29.95,SSW,210,1.0,6.0,76,0.00,,,0.00,meteohub,2013-04-19 01:27:00,
2013-04-18 21:32:00,78.6,70.3,29.95,SSW,213,3.0,5.0,76,0.00,,,0.00,meteohub,2013-04-19 01:32:00,
2013-04-18 21:37:00,78.4,70.7,29.95,SW,218,4.0,6.0,77,0.00,,,0.00,meteohub,2013-04-19 01:37:00,
2013-04-18 21:42:00,78.4,70.7,29.95,SW,215,2.0,6.0,77,0.00,,,0.00,meteohub,2013-04-19 01:42:00,
2013-04-18 21:47:00,78.3,70.9,29.96,SW,217,2.0,6.0,78,0.00,,,0.00,meteohub,2013-04-19 01:47:00,
2013-04-18 21:52:00,78.1,70.7,29.96,SW,217,3.0,6.0,78,0.00,,,0.00,meteohub,2013-04-19 01:52:00,
2013-04-18 22:02:00,78.1,70.7,29.96,SW,220,3.0,8.0,78,0.00,,,0.00,meteohub,2013-04-19 02:02:00,
2013-04-18 22:07:00,78.1,70.7,29.96,SSW,196,2.0,8.0,78,0.00,,,0.00,meteohub,2013-04-19 02:07:00,
2013-04-18 22:12:00,78.1,70.7,29.96,SSW,207,5.0,8.0,78,0.00,,,0.00,meteohub,2013-04-19 02:12:00,
2013-04-18 22:17:00,78.1,70.7,29.97,SSW,213,2.0,7.0,78,0.00,,,0.00,meteohub,2013-04-19 02:17:00,
2013-04-18 22:22:00,77.9,70.5,29.97,SW,221,3.0,7.0,78,0.00,,,0.00,meteohub,2013-04-19 02:22:00,
2013-04-18 22:27:00,77.9,70.9,29.97,SW,215,0.0,7.0,79,0.00,,,0.00,meteohub,2013-04-19 02:27:00,
2013-04-18 22:32:00,77.9,70.9,29.97,SW,215,2.0,5.0,79,0.00,,,0.00,meteohub,2013-04-19 02:32:00,
2013-04-18 22:37:00,77.9,70.9,29.97,SSW,203,1.0,5.0,79,0.00,,,0.00,meteohub,2013-04-19 02:37:00,
2013-04-18 22:42:00,77.7,70.7,29.97,SSW,203,0.0,3.0,79,0.00,,,0.00,meteohub,2013-04-19 02:42:00,
2013-04-18 22:47:00,77.7,71.1,29.97,SSW,203,0.0,3.0,80,0.00,,,0.00,meteohub,2013-04-19 02:47:00,
2013-04-18 22:52:00,77.7,71.1,29.97,South,186,4.0,4.0,80,0.00,,,0.00,meteohub,2013-04-19 02:52:00,
2013-04-18 22:57:00,77.9,71.6,29.97,South,180,5.0,5.0,81,0.00,,,0.00,meteohub,2013-04-19 02:57:00,
2013-04-18 23:02:00,77.9,71.6,29.97,SSW,198,5.0,7.0,81,0.00,,,0.00,meteohub,2013-04-19 03:02:00,
2013-04-18 23:07:00,77.7,71.4,29.97,South,171,3.0,7.0,81,0.00,,,0.00,meteohub,2013-04-19 03:07:00,
2013-04-18 23:12:00,77.7,71.8,29.97,South,182,7.0,7.0,82,0.00,,,0.00,meteohub,2013-04-19 03:12:00,
2013-04-18 23:17:00,77.7,71.8,29.97,South,180,3.0,7.0,82,0.00,,,0.00,meteohub,2013-04-19 03:17:00,
2013-04-18 23:22:00,77.7,71.8,29.97,South,180,1.0,7.0,82,0.00,,,0.00,meteohub,2013-04-19 03:22:00,
2013-04-18 23:27:00,77.5,71.6,29.97,South,180,1.0,7.0,82,0.00,,,0.00,meteohub,2013-04-19 03:27:00,
2013-04-18 23:32:00,77.5,71.6,29.97,SSE,154,6.0,6.0,82,0.00,,,0.00,meteohub,2013-04-19 03:32:00,
2013-04-18 23:37:00,77.5,72.0,29.97,SSE,150,4.0,11.0,83,0.00,,,0.00,meteohub,2013-04-19 03:37:00,
2013-04-18 23:42:00,77.5,72.0,29.97,South,177,3.0,11.0,83,0.00,,,0.00,meteohub,2013-04-19 03:42:00,
2013-04-18 23:47:00,77.4,71.8,29.97,South,169,3.0,11.0,83,0.00,,,0.00,meteohub,2013-04-19 03:47:00,
2013-04-18 23:52:00,77.2,72.0,29.97,South,176,2.0,6.0,84,0.00,,,0.00,meteohub,2013-04-19 03:52:00,
2013-04-18 23:57:00,77.2,72.0,29.97,South,176,0.0,6.0,84,0.00,,,0.00,meteohub,2013-04-19 03:57:00,